SPTN35 YSHW-YSHW

Flight info

Callsign SPTN35
Flight time 0h 36m
Altitude 2500
Route DCT
Aircraft H60/M-SDFGRY/LB1

Departure

Time 2026-04-16 11:48
Airport Holsworthy (Military) Airport (YSHW)

Arrival

Time 2026-04-16 12:24
Airport Holsworthy (Military) Airport (YSHW)
Time Latitude Longitude Altitude Speed Heading
2026-04-16 11:38 -33.99482 150.95269 240 ft 0 kts 123°
2026-04-16 11:46 -33.99492 150.95287 247 ft 5 kts 153°
2026-04-16 11:47 -33.99524 150.95273 248 ft 6 kts 214°
2026-04-16 11:47 -33.99565 150.95239 248 ft 8 kts 219°
2026-04-16 11:47 -33.99518 150.95127 306 ft 35 kts 305°
2026-04-16 11:47 -33.99276 150.94719 634 ft 79 kts 309°
2026-04-16 11:48 -33.99057 150.94083 879 ft 103 kts 256°
2026-04-16 11:48 -33.99740 150.93757 898 ft 119 kts 182°
2026-04-16 11:48 -34.00287 150.94523 1188 ft 140 kts 114°
2026-04-16 11:48 -34.00698 150.95515 1936 ft 123 kts 124°
2026-04-16 11:49 -34.01157 150.96410 2268 ft 126 kts 124°
2026-04-16 11:49 -34.01630 150.97247 2325 ft 113 kts 165°
2026-04-16 11:49 -34.02333 150.97219 1943 ft 129 kts 207°
2026-04-16 11:49 -34.03255 150.96675 2067 ft 164 kts 212°
2026-04-16 11:50 -34.04316 150.95970 2114 ft 179 kts 214°
2026-04-16 11:50 -34.05360 150.95238 1971 ft 177 kts 214°
2026-04-16 11:50 -34.06418 150.94521 2186 ft 170 kts 213°
2026-04-16 11:50 -34.07479 150.93853 2174 ft 169 kts 213°
2026-04-16 11:51 -34.08536 150.93177 2135 ft 170 kts 213°
2026-04-16 11:51 -34.09596 150.92500 2127 ft 174 kts 213°
2026-04-16 11:51 -34.10604 150.91684 2131 ft 167 kts 224°
2026-04-16 11:51 -34.11550 150.90826 2126 ft 171 kts 223°
2026-04-16 11:52 -34.12497 150.89961 2125 ft 169 kts 223°
2026-04-16 11:52 -34.13448 150.89104 2115 ft 172 kts 223°
2026-04-16 11:52 -34.14398 150.88265 2131 ft 169 kts 223°
2026-04-16 11:52 -34.15336 150.87409 2129 ft 167 kts 221°
2026-04-16 11:53 -34.16413 150.86893 2153 ft 169 kts 204°
2026-04-16 11:53 -34.17481 150.86425 2398 ft 157 kts 208°
2026-04-16 11:53 -34.18461 150.85961 2786 ft 149 kts 210°
2026-04-16 11:53 -34.19405 150.85461 3081 ft 146 kts 212°
2026-04-16 11:54 -34.20329 150.84967 3071 ft 146 kts 212°
2026-04-16 11:54 -34.21257 150.84464 3069 ft 144 kts 212°
2026-04-16 11:54 -34.22178 150.83973 3068 ft 144 kts 212°
2026-04-16 11:54 -34.23102 150.83475 3058 ft 145 kts 212°
2026-04-16 11:55 -34.24023 150.82965 3059 ft 147 kts 212°
2026-04-16 11:55 -34.25000 150.82583 3057 ft 149 kts 202°
2026-04-16 11:55 -34.25978 150.82250 3052 ft 141 kts 202°
2026-04-16 11:55 -34.26938 150.81938 3055 ft 144 kts 202°
2026-04-16 11:56 -34.27898 150.81617 3054 ft 141 kts 202°
2026-04-16 11:56 -34.28845 150.81305 3057 ft 141 kts 202°
2026-04-16 11:56 -34.29804 150.80988 3053 ft 139 kts 202°
2026-04-16 11:56 -34.30748 150.80672 3055 ft 139 kts 202°
2026-04-16 11:57 -34.31658 150.80293 3045 ft 136 kts 229°
2026-04-16 11:57 -34.31913 150.79483 3209 ft 94 kts 307°
2026-04-16 11:57 -34.31462 150.79134 3231 ft 77 kts 40°
2026-04-16 11:57 -34.30881 150.79540 3039 ft 112 kts 30°
2026-04-16 11:58 -34.30252 150.80181 3057 ft 130 kts 38°
2026-04-16 11:58 -34.29555 150.81010 2726 ft 145 kts 42°
2026-04-16 11:58 -34.28886 150.81917 2771 ft 149 kts 46°
2026-04-16 11:58 -34.28209 150.82932 2456 ft 154 kts 49°
2026-04-16 11:59 -34.27560 150.83957 2502 ft 159 kts 50°
2026-04-16 11:59 -34.26929 150.85104 2613 ft 172 kts 55°
2026-04-16 11:59 -34.26301 150.86392 2787 ft 179 kts 58°
2026-04-16 11:59 -34.26439 150.87718 2861 ft 165 kts 152°
2026-04-16 12:00 -34.27335 150.87439 2830 ft 135 kts 239°
2026-04-16 12:00 -34.27861 150.86479 2922 ft 142 kts 239°
2026-04-16 12:00 -34.28398 150.85420 2914 ft 154 kts 241°
2026-04-16 12:00 -34.28947 150.84312 2891 ft 152 kts 241°
2026-04-16 12:01 -34.29499 150.83232 2887 ft 150 kts 241°
2026-04-16 12:01 -34.30064 150.82158 2888 ft 152 kts 241°
2026-04-16 12:01 -34.30620 150.81088 2873 ft 153 kts 241°
2026-04-16 12:02 -34.30596 150.79045 3193 ft 135 kts 328°
2026-04-16 12:02 -34.29685 150.78664 2924 ft 140 kts 336°
2026-04-16 12:02 -34.28748 150.78355 3000 ft 143 kts 337°
2026-04-16 12:02 -34.27810 150.78059 3005 ft 144 kts 337°
2026-04-16 12:03 -34.26832 150.77758 3006 ft 145 kts 337°
2026-04-16 12:03 -34.25875 150.77439 3014 ft 140 kts 339°
2026-04-16 12:03 -34.25222 150.78073 2799 ft 148 kts 93°
2026-04-16 12:03 -34.25620 150.79156 3116 ft 146 kts 131°
2026-04-16 12:04 -34.26242 150.80274 3014 ft 173 kts 132°
2026-04-16 12:04 -34.26964 150.81529 2608 ft 187 kts 132°
2026-04-16 12:04 -34.27959 150.81831 2646 ft 134 kts 210°
2026-04-16 12:04 -34.28814 150.81300 3085 ft 148 kts 215°
2026-04-16 12:05 -34.29711 150.80668 3128 ft 145 kts 219°
2026-04-16 12:05 -34.30518 150.79979 3195 ft 136 kts 222°
2026-04-16 12:05 -34.31360 150.79763 3278 ft 156 kts 154°
2026-04-16 12:05 -34.31923 150.81180 2522 ft 200 kts 125°
2026-04-16 12:06 -34.32101 150.82796 2154 ft 206 kts 62°
2026-04-16 12:06 -34.31084 150.83758 2087 ft 184 kts 31°
2026-04-16 12:06 -34.30061 150.84647 2714 ft 179 kts 32°
2026-04-16 12:06 -34.29054 150.85561 2452 ft 176 kts 32°
2026-04-16 12:07 -34.28090 150.86433 2044 ft 174 kts 32°
2026-04-16 12:07 -34.27102 150.87327 2357 ft 177 kts 32°
2026-04-16 12:07 -34.26125 150.88113 2299 ft 151 kts 356°
2026-04-16 12:07 -34.25882 150.87476 2889 ft 115 kts 240°
2026-04-16 12:08 -34.26765 150.86986 3011 ft 154 kts 217°
2026-04-16 12:08 -34.27697 150.86342 3082 ft 153 kts 216°
2026-04-16 12:08 -34.28635 150.85699 3044 ft 158 kts 216°
2026-04-16 12:08 -34.29566 150.85036 3030 ft 153 kts 216°
2026-04-16 12:09 -34.30493 150.84393 3032 ft 155 kts 216°
2026-04-16 12:09 -34.31429 150.83746 3029 ft 156 kts 216°
2026-04-16 12:09 -34.32361 150.83111 3031 ft 155 kts 216°
2026-04-16 12:09 -34.33291 150.82469 3025 ft 155 kts 216°
2026-04-16 12:10 -34.34218 150.81820 3028 ft 152 kts 216°
2026-04-16 12:10 -34.35155 150.81186 3027 ft 155 kts 216°
2026-04-16 12:10 -34.36083 150.80556 3032 ft 152 kts 216°
2026-04-16 12:10 -34.37010 150.79923 3028 ft 153 kts 216°
2026-04-16 12:11 -34.37950 150.79287 3031 ft 155 kts 216°
2026-04-16 12:11 -34.38885 150.78655 3019 ft 153 kts 216°
2026-04-16 12:11 -34.39728 150.77920 2986 ft 137 kts 249°
2026-04-16 12:11 -34.39347 150.77185 3099 ft 131 kts 348°
2026-04-16 12:12 -34.38603 150.77980 3225 ft 162 kts 55°
2026-04-16 12:12 -34.37929 150.79089 3190 ft 172 kts 36°
2026-04-16 12:12 -34.36973 150.79980 3177 ft 176 kts 32°
2026-04-16 12:12 -34.36025 150.80870 3226 ft 174 kts 32°
2026-04-16 12:13 -34.35077 150.81770 3217 ft 174 kts 32°
2026-04-16 12:13 -34.34125 150.82682 3222 ft 175 kts 33°
2026-04-16 12:13 -34.33177 150.83597 3227 ft 173 kts 33°
2026-04-16 12:13 -34.32236 150.84516 3225 ft 173 kts 33°
2026-04-16 12:14 -34.31295 150.85442 3227 ft 175 kts 33°
2026-04-16 12:14 -34.30358 150.86373 3217 ft 179 kts 35°
2026-04-16 12:14 -34.29545 150.87576 3069 ft 183 kts 52°
2026-04-16 12:14 -34.28791 150.88843 3009 ft 187 kts 52°
2026-04-16 12:15 -34.28049 150.90103 2947 ft 185 kts 52°
2026-04-16 12:15 -34.27326 150.91354 2893 ft 177 kts 52°
2026-04-16 12:15 -34.26614 150.92596 2865 ft 182 kts 52°
2026-04-16 12:15 -34.25908 150.93847 2844 ft 181 kts 52°
2026-04-16 12:16 -34.25193 150.95108 2824 ft 180 kts 52°
2026-04-16 12:16 -34.24493 150.96367 2793 ft 183 kts 52°
2026-04-16 12:16 -34.23783 150.97628 2812 ft 177 kts 52°
2026-04-16 12:16 -34.23082 150.98884 2764 ft 181 kts 52°
2026-04-16 12:17 -34.22382 151.00147 2738 ft 182 kts 52°
2026-04-16 12:17 -34.21686 151.01391 2724 ft 179 kts 52°
2026-04-16 12:17 -34.20996 151.02643 2258 ft 188 kts 53°
2026-04-16 12:17 -34.20282 151.04016 1601 ft 194 kts 55°
2026-04-16 12:18 -34.19543 151.05349 1161 ft 186 kts 52°
2026-04-16 12:18 -34.18826 151.06589 578 ft 173 kts 53°
2026-04-16 12:18 -34.18120 151.07776 670 ft 170 kts 52°
2026-04-16 12:18 -34.17433 151.08953 621 ft 171 kts 53°
2026-04-16 12:19 -34.16737 151.10122 607 ft 168 kts 53°
2026-04-16 12:19 -34.16045 151.11302 584 ft 175 kts 53°
2026-04-16 12:19 -34.15346 151.12485 568 ft 173 kts 53°
2026-04-16 12:19 -34.14515 151.13564 549 ft 178 kts 33°
2026-04-16 12:20 -34.13472 151.14246 556 ft 168 kts 24°
2026-04-16 12:20 -34.12403 151.14880 549 ft 170 kts 25°
2026-04-16 12:20 -34.11357 151.15535 548 ft 168 kts 27°
2026-04-16 12:20 -34.10312 151.16212 551 ft 171 kts 27°
2026-04-16 12:21 -34.09264 151.16887 557 ft 171 kts 27°
2026-04-16 12:21 -34.08190 151.17446 541 ft 163 kts 14°
2026-04-16 12:21 -34.07048 151.17446 548 ft 169 kts 351°
2026-04-16 12:21 -34.05890 151.17221 552 ft 169 kts 350°
2026-04-16 12:22 -34.04747 151.17003 550 ft 169 kts 350°
2026-04-16 12:22 -34.03592 151.16758 547 ft 168 kts 350°
2026-04-16 12:22 -34.02436 151.16517 557 ft 169 kts 350°
2026-04-16 12:22 -34.01280 151.16306 545 ft 167 kts 354°
2026-04-16 12:23 -34.00112 151.16151 548 ft 167 kts 352°
2026-04-16 12:23 -33.99353 151.15472 308 ft 134 kts 269°
2026-04-16 12:23 -33.99008 151.14973 486 ft 78 kts 356°
2026-04-16 12:23 -33.98374 151.15227 453 ft 111 kts 21°
2026-04-16 12:24 -33.97773 151.15673 488 ft 83 kts 34°
2026-04-16 12:24 -33.97360 151.16067 385 ft 76 kts 31°
2026-04-16 12:24 -33.97017 151.16350 569 ft 29 kts
2026-04-16 12:24 -33.96980 151.16358 464 ft 2 kts 358°
2026-04-16 12:25 -33.96998 151.16382 331 ft 6 kts 43°
2026-04-16 12:25 -33.97024 151.16318 281 ft 17 kts 43°
2026-04-16 12:25 -33.96968 151.16021 367 ft 66 kts 21°
2026-04-16 12:25 -33.96753 151.15747 523 ft 32 kts
2026-04-16 12:26 -33.96574 151.15813 451 ft 25 kts 25°
2026-04-16 12:26 -33.96279 151.16009 337 ft 87 kts 31°
2026-04-16 12:26 -33.95569 151.16504 502 ft 139 kts 30°
2026-04-16 12:26 -33.94752 151.17163 422 ft 139 kts 37°
2026-04-16 12:27 -33.94199 151.17822 379 ft 73 kts 56°
2026-04-16 12:27 -33.94051 151.18327 305 ft 52 kts 70°
2026-04-16 12:27 -33.93972 151.18593 238 ft 26 kts 64°
2026-04-16 12:27 -33.93934 151.18857 134 ft 31 kts 69°
2026-04-16 12:28 -33.93920 151.19011 66 ft 10 kts 68°
2026-04-16 12:28 -33.93916 151.19079 51 ft 10 kts 349°
2026-04-16 12:28 -33.93903 151.19088 37 ft 2 kts 308°
2026-04-16 12:28 -33.93896 151.19077 28 ft 0 kts 303°
2026-04-16 12:29 -33.93899 151.19082 30 ft 3 kts 305°
2026-04-16 12:29 -33.93899 151.19083 29 ft 0 kts 304°